TimeMDT,TemperatureF,Dew PointF,Humidity,Sea Level PressureIn,VisibilityMPH,Wind Direction,Wind SpeedMPH,Gust SpeedMPH,PrecipitationIn,Events,Conditions,WindDirDegrees,DateUTC
12:15 AM,24.8,12.2,59,30.23,10.0,SE,10.4,-,N/A,,Scattered Clouds,140,2013-03-20 06:15:00
12:35 AM,24.8,12.2,59,30.22,10.0,SSE,9.2,-,N/A,,Scattered Clouds,150,2013-03-20 06:35:00
1:15 AM,24.8,10.4,54,30.21,10.0,SE,9.2,-,N/A,,Overcast,140,2013-03-20 07:15:00
1:35 AM,24.8,12.2,59,30.20,10.0,SSE,8.1,-,N/A,,Overcast,150,2013-03-20 07:35:00
1:55 AM,24.8,12.2,59,30.18,10.0,SE,9.2,-,N/A,,Overcast,140,2013-03-20 07:55:00
2:15 AM,24.8,12.2,59,30.18,10.0,SE,11.5,-,N/A,,Overcast,140,2013-03-20 08:15:00
2:35 AM,24.8,12.2,59,30.17,10.0,SE,11.5,-,N/A,,Overcast,140,2013-03-20 08:35:00
2:55 AM,23.0,12.2,63,30.16,10.0,SE,10.4,-,N/A,,Overcast,140,2013-03-20 08:55:00
3:15 AM,23.0,12.2,63,30.15,10.0,SE,12.7,-,N/A,,Mostly Cloudy,140,2013-03-20 09:15:00
3:35 AM,23.0,12.2,63,30.14,10.0,SE,10.4,-,N/A,,Scattered Clouds,140,2013-03-20 09:35:00
3:55 AM,23.0,10.4,59,30.12,10.0,SSE,10.4,-,N/A,,Clear,150,2013-03-20 09:55:00
4:15 AM,23.0,12.2,63,30.12,10.0,SE,16.1,-,N/A,,Clear,140,2013-03-20 10:15:00
4:35 AM,23.0,12.2,63,30.10,10.0,SE,13.8,-,N/A,,Mostly Cloudy,140,2013-03-20 10:35:00
4:55 AM,21.2,12.2,68,30.10,10.0,SE,16.1,-,N/A,,Scattered Clouds,140,2013-03-20 10:55:00
5:15 AM,21.2,12.2,68,30.09,10.0,SE,15.0,19.6,N/A,,Clear,140,2013-03-20 11:15:00
5:35 AM,21.2,12.2,68,30.08,10.0,SSE,11.5,-,N/A,,Clear,150,2013-03-20 11:35:00
5:55 AM,23.0,12.2,63,30.08,10.0,SSE,12.7,-,N/A,,Clear,150,2013-03-20 11:55:00
6:15 AM,23.0,12.2,63,30.08,10.0,SE,16.1,21.9,N/A,,Clear,140,2013-03-20 12:15:00
6:35 AM,23.0,12.2,63,30.07,10.0,SE,15.0,-,N/A,,Scattered Clouds,140,2013-03-20 12:35:00
6:55 AM,23.0,12.2,63,30.05,10.0,SE,17.3,-,N/A,,Scattered Clouds,140,2013-03-20 12:55:00
7:15 AM,23.0,10.4,59,30.05,10.0,SE,15.0,-,N/A,,Clear,140,2013-03-20 13:15:00
7:35 AM,23.0,12.2,63,30.04,10.0,SE,17.3,-,N/A,,Clear,130,2013-03-20 13:35:00
7:55 AM,23.0,10.4,59,30.03,10.0,SE,16.1,-,N/A,,Clear,130,2013-03-20 13:55:00
8:15 AM,23.0,12.2,63,30.03,10.0,SE,15.0,-,N/A,,Clear,140,2013-03-20 14:15:00
8:35 AM,21.2,12.2,68,30.02,10.0,SE,13.8,-,N/A,,Clear,140,2013-03-20 14:35:00
8:55 AM,21.2,12.2,68,30.02,10.0,SE,13.8,-,N/A,,Scattered Clouds,140,2013-03-20 14:55:00
9:35 AM,23.0,14.0,68,29.99,10.0,SSE,13.8,20.7,N/A,,Scattered Clouds,150,2013-03-20 15:35:00
9:55 AM,24.8,14.0,64,29.97,10.0,SE,21.9,-,N/A,,Overcast,130,2013-03-20 15:55:00
10:15 AM,24.8,14.0,64,29.97,10.0,SE,20.7,-,N/A,,Mostly Cloudy,140,2013-03-20 16:15:00
10:35 AM,24.8,14.0,64,29.96,10.0,SSE,13.8,-,N/A,,Scattered Clouds,150,2013-03-20 16:35:00
10:55 AM,26.6,12.2,55,29.97,10.0,SSE,12.7,-,N/A,,Clear,150,2013-03-20 16:55:00
11:15 AM,26.6,10.4,51,29.95,10.0,SSE,10.4,-,N/A,,Scattered Clouds,150,2013-03-20 17:15:00
11:35 AM,28.4,3.2,34,29.95,10.0,SE,11.5,17.3,N/A,,Mostly Cloudy,140,2013-03-20 17:35:00
11:55 AM,30.2,6.8,37,29.94,10.0,SE,13.8,-,N/A,,Scattered Clouds,140,2013-03-20 17:55:00
12:15 PM,30.2,5.0,34,29.93,10.0,SE,16.1,-,N/A,,Scattered Clouds,130,2013-03-20 18:15:00
12:35 PM,30.2,5.0,34,29.92,10.0,ESE,15.0,-,N/A,,Clear,120,2013-03-20 18:35:00
1:15 PM,32.0,6.8,35,29.90,10.0,SE,15.0,20.7,N/A,,Clear,140,2013-03-20 19:15:00
1:35 PM,32.0,6.8,35,29.90,10.0,SE,13.8,-,N/A,,Clear,140,2013-03-20 19:35:00
1:55 PM,32.0,8.6,38,29.89,10.0,SE,8.1,11.5,N/A,,Scattered Clouds,140,2013-03-20 19:55:00
2:15 PM,32.0,8.6,38,29.87,10.0,SE,12.7,17.3,N/A,,Clear,140,2013-03-20 20:15:00
2:35 PM,32.0,10.4,41,29.86,10.0,SE,16.1,-,N/A,,Clear,130,2013-03-20 20:35:00
2:55 PM,33.8,12.2,41,29.85,10.0,SE,11.5,-,N/A,,Clear,140,2013-03-20 20:55:00
3:15 PM,33.8,14.0,44,29.84,10.0,SSE,12.7,-,N/A,,Clear,150,2013-03-20 21:15:00
3:35 PM,35.6,15.8,44,29.83,10.0,SE,11.5,-,N/A,,Clear,140,2013-03-20 21:35:00
3:55 PM,35.6,15.8,44,29.84,10.0,SE,8.1,17.3,N/A,,Clear,140,2013-03-20 21:55:00
4:15 PM,37.4,19.4,48,29.84,10.0,SSW,11.5,-,N/A,,Clear,210,2013-03-20 22:15:00
4:35 PM,41.0,19.4,42,29.83,10.0,SW,9.2,19.6,N/A,,Clear,230,2013-03-20 22:35:00
4:55 PM,41.0,21.2,45,29.83,10.0,SW,8.1,-,N/A,,Clear,230,2013-03-20 22:55:00
5:15 PM,41.0,21.2,45,29.83,10.0,South,10.4,-,N/A,,Clear,190,2013-03-20 23:15:00
5:35 PM,41.0,19.4,42,29.83,10.0,SSE,8.1,-,N/A,,Clear,150,2013-03-20 23:35:00
5:55 PM,41.0,19.4,42,29.82,10.0,SE,10.4,-,N/A,,Clear,140,2013-03-20 23:55:00
6:15 PM,41.0,21.2,45,29.81,10.0,South,10.4,-,N/A,,Clear,190,2013-03-21 00:15:00
6:35 PM,41.0,21.2,45,29.81,10.0,South,10.4,-,N/A,,Clear,170,2013-03-21 00:35:00
6:55 PM,41.0,21.2,45,29.81,10.0,South,10.4,-,N/A,,Clear,180,2013-03-21 00:55:00
7:15 PM,41.0,21.2,45,29.80,10.0,South,6.9,-,N/A,,Clear,180,2013-03-21 01:15:00
7:35 PM,41.0,21.2,45,29.80,10.0,South,10.4,-,N/A,,Clear,170,2013-03-21 01:35:00
7:55 PM,39.2,23.0,52,29.79,10.0,South,17.3,-,N/A,,Clear,190,2013-03-21 01:55:00
8:15 PM,37.4,26.6,65,29.79,10.0,SW,19.6,26.5,N/A,,Clear,230,2013-03-21 02:15:00
8:35 PM,37.4,26.6,65,29.79,10.0,SW,27.6,34.5,N/A,,Clear,230,2013-03-21 02:35:00
8:55 PM,37.4,26.6,65,29.79,10.0,WSW,24.2,31.1,N/A,,Clear,240,2013-03-21 02:55:00
9:15 PM,37.4,23.0,56,29.78,10.0,WSW,34.5,44.9,N/A,,Clear,240,2013-03-21 03:15:00
9:35 PM,39.2,21.2,49,29.77,10.0,WSW,35.7,44.9,N/A,,Clear,240,2013-03-21 03:35:00
9:55 PM,39.2,21.2,49,29.79,10.0,WSW,33.4,-,N/A,,Clear,240,2013-03-21 03:55:00
10:15 PM,37.4,21.2,52,29.79,10.0,WSW,28.8,34.5,N/A,,Clear,250,2013-03-21 04:15:00
10:35 PM,37.4,23.0,56,29.78,10.0,WSW,28.8,-,N/A,,Clear,250,2013-03-21 04:35:00
10:55 PM,37.4,23.0,56,29.78,10.0,WSW,17.3,25.3,N/A,,Scattered Clouds,240,2013-03-21 04:55:00
11:15 PM,37.4,23.0,56,29.78,10.0,SW,17.3,21.9,N/A,,Mostly Cloudy,230,2013-03-21 05:15:00
11:35 PM,37.4,23.0,56,29.77,10.0,SW,17.3,-,N/A,,Scattered Clouds,230,2013-03-21 05:35:00
11:55 PM,37.4,23.0,56,29.77,10.0,SW,13.8,26.5,N/A,,Clear,230,2013-03-21 05:55:00